Station RLIT2 - 8779280 - Realitos Peninsula, TX Image indicating link to RSS feed of recent meteorological observations for station RLIT2


Conditions at RLIT2 as of
(8:18 am CDT)
1318 GMT on 06/21/2024:
     

Click on the graph icon in the table below to see a time series plot of the last five days of that observation.

5-day plot - Wind Direction Wind Direction (WDIR): E ( 80 deg true )
5-day plot - Wind Speed Wind Speed (WSPD): 15.9 kts
5-day plot - Wind Gust Wind Gust (GST): 21.0 kts
5-day plot - Atmospheric Pressure Atmospheric Pressure (PRES):29.96 in
5-day plot - Air Temperature Air Temperature (ATMP): 84.2 °F
5-day plot - Water Temperature Water Temperature (WTMP): 82.8 °F
5-day plot - Wind Speed at 10 Meters Wind Speed at 10 meters (WSPD10M): 15.5 kts
5-day plot - Wind Speed at 20 Meters Wind Speed at 20 meters (WSPD20M): 17.5 kts
5-day plot -  Wind Speed, Wind Gust and Atmospheric Pressure Combined plot of Wind Speed, Gust, and Air Pressure
Previous observations
TIME
(CDT)
5-day plot - Wind Direction
WDIR
 
5-day plot - Wind Speed
WSPD
kts
5-day plot - Wind Gust
GST
kts
5-day plot - Wave Height
WVHT
ft
5-day plot - Dominant Wave Period
DPD
sec
5-day plot - Average Wave Period
APD
sec
5-day plot - Mean Wave Direction
MWD
 
5-day plot - Atmospheric Pressure
PRES
in
5-day plot - Pressure Tendency
PTDY
in
5-day plot - Air Temperature
ATMP
°F
5-day plot - Water Temperature
WTMP
°F
5-day plot - Dew Point
DEWP
°F
5-day plot - Salinity
SAL
psu
5-day plot - Visibility
VIS
nmi
5-day plot - Tide (above MLLW)
TIDE
ft
2024-06-21 08:12 am E 18.1 20.0----29.96- 83.8 82.8----
2024-06-21 08:06 am E 15.9 19.0----29.96- 84.0 82.8----
2024-06-21 08:00 am E 18.1 21.0----29.96+0.04 83.8 82.8----
2024-06-21 07:54 am E 15.9 19.0----29.95- 83.8 82.8----
2024-06-21 07:48 am E 15.9 19.0----29.95- 84.0 82.8----
2024-06-21 07:42 am E 17.1 19.0----29.95- 83.8 82.8----
2024-06-21 07:36 amENE 17.1 19.0----29.95- 84.0 82.8----
2024-06-21 07:30 am E 17.1 19.0----29.94- 84.0 82.8----
2024-06-21 07:24 am E 17.1 20.0----29.95- 83.8 82.8----
2024-06-21 07:18 am E 17.1 19.0----29.94- 83.7 82.8----
2024-06-21 07:12 am E 17.1 20.0----29.94- 83.7 82.8----
2024-06-21 07:06 am E 15.9 19.0----29.94- 83.7 82.8----
2024-06-21 07:00 am E 18.1 20.0----29.94+0.01 83.8 82.8----
2024-06-21 06:54 am E 19.0 22.0----29.93- 83.8 82.8----
2024-06-21 06:48 am E 19.0 22.0----29.94- 83.7 82.8----
2024-06-21 06:42 am E 18.1 22.0----29.94- 84.0 82.8----
2024-06-21 06:36 am E 19.0 22.0----29.94- 83.8 82.8----
2024-06-21 06:30 am E 15.0 20.0----29.94- 83.5 82.8----
2024-06-21 06:24 am E 17.1 20.0----29.93- 83.8 82.8----
2024-06-21 06:18 am E 19.0 22.0----29.93- 83.8 82.8----
2024-06-21 06:12 am E 19.0 22.0----29.93- 83.7 82.8----
2024-06-21 06:06 am E 18.1 20.0----29.93- 83.7 82.8----
2024-06-21 06:00 am E 15.9 20.0----29.93+0.00 83.8 82.8----
2024-06-21 05:54 am E 17.1 22.9----29.93- 83.8 82.8----
2024-06-21 05:48 am E 20.0 22.0----29.93- 83.8 82.8----
2024-06-21 05:42 am E 19.0 22.9----29.93- 83.8 82.8----
2024-06-21 05:36 am E 18.1 20.0----29.93- 83.8 82.8----
2024-06-21 05:30 am E 15.9 20.0----29.93- 83.8 82.8----
2024-06-21 05:24 am E 20.0 24.1----29.93- 84.0 82.8----
2024-06-21 05:18 am E 20.0 24.1----29.92- 83.8 82.9----
2024-06-21 05:12 am E 21.0 25.1----29.92- 83.8 82.9----
2024-06-21 05:06 am E 18.1 21.0----29.92- 83.7 82.9----
2024-06-21 05:00 am E 17.1 20.0----29.92-0.01 83.5 82.9----
2024-06-21 04:54 am E 19.0 22.0----29.92- 83.7 82.9----
2024-06-21 04:48 am E 20.0 22.9----29.92- 83.7 82.9----
2024-06-21 04:42 am E 20.0 22.9----29.92- 83.8 83.1----
2024-06-21 04:36 am E 19.0 22.0----29.92- 83.5 83.1----
2024-06-21 04:30 am E 15.0 18.1----29.92- 83.8 83.1----
2024-06-21 04:24 am E 14.0 19.0----29.92- 83.8 83.1----
2024-06-21 04:18 am E 18.1 20.0----29.92- 83.8 83.1----
2024-06-21 04:12 am E 15.9 21.0----29.92- 84.0 83.1----
2024-06-21 04:06 am E 18.1 22.0----29.93- 84.0 83.3----
2024-06-21 04:00 am E 17.1 21.0----29.92-0.02 83.8 83.3----
2024-06-21 03:54 am E 18.1 22.9----29.92- 83.8 83.3----
2024-06-21 03:48 am E 17.1 22.0----29.93- 83.7 83.3----
2024-06-21 03:42 am E 19.0 22.0----29.93- 83.8 83.3----
2024-06-21 03:36 am E 18.1 22.0----29.93- 83.8 83.3----
2024-06-21 03:30 am E 15.0 20.0----29.93- 83.7 83.3----
2024-06-21 03:24 am E 18.1 21.0----29.92- 83.8 83.3----
2024-06-21 03:18 am E 18.1 22.9----29.92- 83.8 83.3----
2024-06-21 03:12 am E 19.0 25.1----29.92- 83.8 83.3----
2024-06-21 03:06 am E 20.0 22.9----29.93- 83.8 83.3----
2024-06-21 03:00 am E 20.0 22.9----29.93-0.03 84.0 83.3----
2024-06-21 02:54 am E 19.0 26.0----29.93- 84.0 83.3----
2024-06-21 02:48 am E 19.0 22.9----29.93- 83.8 83.3----
2024-06-21 02:42 am E 19.0 22.0----29.93- 84.0 83.3----
2024-06-21 02:36 am E 19.0 22.9----29.93- 84.4 83.3----
2024-06-21 02:30 am E 21.0 24.1----29.93- 84.4 83.3----
2024-06-21 02:24 am E 21.0 22.9----29.93- 84.4 83.3----
2024-06-21 02:18 am E 19.0 22.0----29.93- 84.2 83.3----
2024-06-21 02:12 am E 20.0 24.1----29.94- 84.4 83.3----
2024-06-21 02:06 am E 17.1 22.9----29.94- 84.2 83.3----
2024-06-21 02:00 am E 20.0 22.0----29.94-0.01 84.2 83.3----
2024-06-21 01:54 am E 19.0 24.1----29.94- 84.2 83.5----
2024-06-21 01:48 am E 20.0 22.9----29.94- 84.2 83.5----
2024-06-21 01:42 am E 18.1 22.0----29.95- 84.4 83.5----
2024-06-21 01:36 am E 17.1 20.0----29.95- 84.4 83.5----
2024-06-21 01:30 am E 17.1 22.9----29.95- 84.4 83.5----
2024-06-21 01:24 am E 19.0 25.1----29.95- 84.4 83.5----
2024-06-21 01:18 am E 17.1 20.0----29.95- 84.0 83.5----
2024-06-21 01:12 am E 18.1 25.1----29.95- 84.4 83.5----
2024-06-21 01:06 am E 20.0 25.1----29.95- 84.4 83.5----
2024-06-21 01:00 am E 20.0 22.9----29.95+0.01 84.2 83.7----
2024-06-21 12:54 am E 18.1 22.0----29.95- 84.4 83.7----
2024-06-21 12:48 am E 17.1 21.0----29.95- 84.4 83.7----
2024-06-21 12:42 am E 18.1 24.1----29.95- 84.4 83.7----
2024-06-21 12:36 am E 19.0 22.9----29.95- 84.6 83.8----
2024-06-21 12:30 am E 19.0 25.1----29.95- 84.6 83.8----
2024-06-21 12:24 am E 19.0 22.9----29.95- 84.4 83.8----
2024-06-21 12:18 am E 21.0 25.1----29.95- 84.7 83.8----
2024-06-21 12:12 am E 22.0 25.1----29.95- 84.7 84.0----
2024-06-21 12:06 am E 21.0 25.1----29.95- 84.6 84.0----
2024-06-21 12:00 am E 22.0 26.0----29.95+0.04 84.7 84.0----
2024-06-20 11:54 pm E 21.0 25.1----29.95- 84.7 84.0----
2024-06-20 11:48 pm E 20.0 25.1----29.95- 84.6 84.0----
2024-06-20 11:42 pm E 20.0 25.1----29.96- 84.6 84.2----
2024-06-20 11:36 pm E 21.0 22.9----29.96- 84.6 84.2----
2024-06-20 11:30 pm E 22.0 24.1----29.96- 84.7 84.2----
2024-06-20 11:24 pm E 22.0 25.1----29.96- 84.9 84.2----
2024-06-20 11:18 pm E 21.0 25.1----29.96- 84.7 84.2----
2024-06-20 11:12 pm E 22.9 26.0----29.96- 84.7 84.4----
2024-06-20 11:06 pm E 20.0 24.1----29.95- 84.7 84.4----
2024-06-20 11:00 pm E 21.0 24.1----29.95+0.07 84.7 84.4----
2024-06-20 10:54 pm E 20.0 28.0----29.95- 84.9 84.4----
2024-06-20 10:48 pm E 22.0 25.1----29.95- 84.7 84.6----
2024-06-20 10:42 pm E 22.0 25.1----29.95- 84.9 84.6----
2024-06-20 10:36 pm E 22.0 25.1----29.94- 84.7 84.6----
2024-06-20 10:30 pm E 21.0 25.1----29.94- 84.9 84.6----
2024-06-20 10:24 pm E 19.0 25.1----29.94- 84.7 84.6----
2024-06-20 10:18 pm E 22.0 27.0----29.93- 84.9 84.7----
2024-06-20 10:12 pm E 21.0 24.1----29.93- 84.7 84.7----
2024-06-20 10:06 pm E 22.0 26.0----29.93- 84.9 84.7----
2024-06-20 10:00 pm E 21.0 25.1----29.93+0.06 84.9 84.9----
2024-06-20 09:54 pm E 19.0 25.1----29.93- 84.9 84.9----
2024-06-20 09:48 pm E 21.0 26.0----29.93- 84.9 84.9----
2024-06-20 09:42 pm E 22.9 28.0----29.93- 84.9 84.9----
2024-06-20 09:36 pm E 22.9 27.0----29.93- 84.9 84.9----
2024-06-20 09:30 pm E 22.9 28.0----29.93- 85.1 85.1----
2024-06-20 09:24 pm E 21.0 26.0----29.92- 84.7 85.1----
2024-06-20 09:18 pm E 22.0 27.0----29.92- 84.9 85.1----
2024-06-20 09:12 pm E 22.0 27.0----29.92- 84.9 85.1----
2024-06-20 09:06 pm E 22.0 26.0----29.91- 84.9 85.1----
2024-06-20 09:00 pm E 22.9 28.0----29.91+0.06 84.9 85.3----
2024-06-20 08:54 pm E 26.0 28.0----29.91- 84.9 85.3----
2024-06-20 08:48 pm E 24.1 28.0----29.91- 84.9 85.3----
2024-06-20 08:42 pmENE 22.9 26.0----29.90- 84.7 85.3----
2024-06-20 08:36 pmENE 21.0 26.0----29.90- 84.9 85.3----
2024-06-20 08:30 pm E 22.9 26.0----29.89- 84.7 85.3----
2024-06-20 08:24 pm E 22.9 27.0----29.89- 84.7 85.5----
2024-06-20 08:18 pm E 19.0 24.1----29.89- 84.6 85.5----
2024-06-20 08:12 pm E 21.0 26.0----29.89- 84.2 85.6----
2024-06-20 08:06 pm E 20.0 24.1----29.88- 84.0 85.6----
2024-06-20 08:00 pm E 19.0 22.0----29.88+0.02 84.0 85.8----
2024-06-20 07:54 pm E 21.0 28.9----29.88- 83.7 85.8----
2024-06-20 07:48 pm E 26.0 32.1----29.88- 83.5 85.8----
2024-06-20 07:42 pm E 20.0 26.0----29.88- 84.6 86.0----
2024-06-20 07:36 pm E 22.9 26.0----29.88- 84.7 86.0----
2024-06-20 07:30 pm E 20.0 27.0----29.88- 84.9 86.0----
2024-06-20 07:24 pm E 22.9 27.0----29.87- 84.6 86.2----
2024-06-20 07:18 pm E 22.9 28.9----29.87- 84.7 86.2----
2024-06-20 07:12 pm E 22.9 28.0----29.87- 84.6 86.2----
2024-06-20 07:06 pm E 25.1 28.0----29.87- 84.4 86.4----
2024-06-20 07:00 pm E 24.1 29.9----29.87+0.00 84.6 86.4----
2024-06-20 06:54 pm E 24.1 28.9----29.86- 84.6 86.4----
2024-06-20 06:48 pm E 25.1 31.1----29.86- 84.6 86.4----
2024-06-20 06:42 pm E 25.1 31.1----29.86- 84.6 86.4----
2024-06-20 06:36 pm E 26.0 29.9----29.85- 84.6 86.4----
2024-06-20 06:30 pm E 25.1 29.9----29.85- 84.6 86.4----
2024-06-20 06:24 pm E 24.1 31.1----29.85- 84.7 86.4----
2024-06-20 06:18 pm E 24.1 33.0----29.85- 84.6 86.4----
2024-06-20 06:12 pm E 26.0 31.1----29.85- 84.4 86.5----
2024-06-20 06:06 pm E 25.1 29.9----29.85- 84.0 86.5----
2024-06-20 06:00 pmENE 22.9 34.0----29.85-0.02 81.3 86.5----
2024-06-20 05:54 pm E 25.1 28.9----29.85- 85.3 86.7----
2024-06-20 05:48 pm E 25.1 28.0----29.85- 85.8 86.7----
2024-06-20 05:42 pm E 24.1 28.9----29.85- 85.8 86.7----
2024-06-20 05:36 pm E 26.0 29.9----29.85- 85.8 86.7----
2024-06-20 05:30 pm E 25.1 28.9----29.85-- 86.7----
2024-06-20 05:24 pm E 26.0 32.1----29.85-- 86.7----
2024-06-20 05:18 pm E 24.1 31.1----29.85-------
2024-06-20 05:12 pm E 22.9 28.0----29.86-------
2024-06-20 05:06 pm E 25.1 29.9----29.86-------
2024-06-20 05:00 pm E 25.1 32.1----29.86+0.00 85.8 86.9----
2024-06-20 04:54 pm E 25.1 28.9----29.86- 85.8 86.7----
2024-06-20 04:48 pm E 24.1 28.0----29.86- 85.3 86.7----
2024-06-20 04:42 pm E 22.9 26.0----29.87- 85.3 86.7----
2024-06-20 04:36 pm E 22.9 28.0----29.87- 85.1 86.5----
2024-06-20 04:30 pm E 22.9 27.0----29.87- 84.9 86.4----
2024-06-20 04:24 pm E 22.0 28.0----29.87- 84.7 86.4----
2024-06-20 04:18 pm E 25.1 28.9----29.87- 84.7 86.4----
2024-06-20 04:12 pmENE 22.9 28.9----29.87- 85.1 86.4----
2024-06-20 04:06 pm E 26.0 31.1----29.87- 85.3 86.4----
2024-06-20 04:00 pm E 27.0 29.9----29.87+0.01 85.1 86.2----
2024-06-20 03:54 pm E 26.0 32.1----29.88- 85.1 86.2----
2024-06-20 03:48 pm E 31.1 34.0----29.87- 85.1 86.2----
2024-06-20 03:42 pm E 24.1 31.1----29.87- 85.5 86.2----
2024-06-20 03:36 pm E 26.0 32.1----29.87- 85.3 86.2----
2024-06-20 03:30 pm E 25.1 29.9----29.87- 84.7 86.0----
2024-06-20 03:24 pm E 26.0 29.9----29.87- 84.7 85.8----
2024-06-20 03:18 pm E 22.9 29.9----29.87- 84.0 85.6----
2024-06-20 03:12 pm E 26.0 32.1----29.87- 84.7 85.5----
2024-06-20 03:06 pm E 20.0 27.0----29.87- 84.9 85.3----
2024-06-20 03:00 pm E 26.0 29.9----29.87+0.01 85.1 85.1----
2024-06-20 02:54 pm E 27.0 31.1----29.87- 85.3 85.1----
2024-06-20 02:48 pm E 26.0 29.9----29.87- 85.1 85.1----
2024-06-20 02:42 pm E 26.0 28.9----29.87- 84.9 84.9----
2024-06-20 02:36 pm E 24.1 31.1----29.87- 84.4 84.9----
2024-06-20 02:30 pm E 27.0 29.9----29.87-- 84.9----
2024-06-20 02:24 pm E 22.9 31.1----29.87-- 84.7----
2024-06-20 02:18 pm E 27.0 32.1----29.87- 85.8 84.7----
2024-06-20 02:12 pm E 28.0 31.1----29.87- 85.8 84.7----
2024-06-20 02:06 pm E 26.0 31.1----29.87- 85.8 84.6----
2024-06-20 02:00 pm E 26.0 31.1----29.87+0.02 85.6 84.6----
2024-06-20 01:54 pm E 25.1 29.9----29.87- 85.6 84.4----
2024-06-20 01:48 pm E 25.1 28.9----29.87- 85.6 84.4----
2024-06-20 01:42 pm E 26.0 31.1----29.87- 85.6 84.4----
2024-06-20 01:36 pm E 25.1 32.1----29.87- 85.6 84.4----
2024-06-20 01:30 pm E 26.0 29.9----29.87- 85.5 84.4----
2024-06-20 01:24 pm E 22.0 28.0----29.87- 85.6 84.4----
2024-06-20 01:18 pm E 24.1 31.1----29.87- 85.6 84.4----
2024-06-20 01:12 pm E 25.1 33.0----29.86- 85.6 84.2----
2024-06-20 01:06 pm E 25.1 31.1----29.86- 85.5 84.2----
2024-06-20 01:00 pm E 27.0 29.9----29.86+0.04 85.5 84.0----
2024-06-20 12:54 pm E 26.0 32.1----29.86- 85.5 84.0----
2024-06-20 12:48 pm E 26.0 31.1----29.86- 85.5 83.8----
2024-06-20 12:42 pm E 24.1 33.0----29.87- 85.3 83.8----
2024-06-20 12:36 pm E 27.0 32.1----29.87- 85.5 83.8----
2024-06-20 12:30 pm E 27.0 32.1----29.87- 85.5 83.8----
2024-06-20 12:24 pm E 24.1 28.9----29.87- 85.3 83.7----
2024-06-20 12:18 pm E 22.0 27.0----29.87- 85.3 83.7----
2024-06-20 12:12 pm E 22.9 29.9----29.86- 85.3 83.5----
2024-06-20 12:06 pm E 24.1 29.9----29.87- 85.3 83.5----
2024-06-20 12:00 pm E 24.1 29.9----29.86+0.06 85.3 83.3----
2024-06-20 11:54 am E 22.0 29.9----29.86- 85.3 83.1----
2024-06-20 11:48 am E 25.1 31.1----29.86- 85.3 82.8----
2024-06-20 11:42 am E 27.0 32.1----29.86- 85.1 82.8----
2024-06-20 11:36 am E 24.1 28.0----29.86- 85.3 82.8----
2024-06-20 11:30 am E 21.0 27.0----29.86- 85.1 82.8----
2024-06-20 11:24 am E 21.0 27.0----29.86- 85.1 82.6----
2024-06-20 11:18 am E 22.9 27.0----29.85- 85.1 82.6----
2024-06-20 11:12 am E 22.9 28.0----29.85- 85.1 82.6----
2024-06-20 11:06 am E 22.9 25.1----29.85- 85.3 82.4----
2024-06-20 11:00 am E 22.9 26.0----29.85+0.08 85.3 82.4----
2024-06-20 10:54 am E 20.0 25.1----29.85- 85.1 82.2----
2024-06-20 10:48 am E 19.0 25.1----29.85- 84.9 82.2----
2024-06-20 10:42 am E 20.0 25.1----29.85- 85.1 82.2----
2024-06-20 10:36 am E 20.0 24.1----29.85- 85.1 82.2----
2024-06-20 10:30 am E 22.9 28.0----29.84- 85.1 82.2----
2024-06-20 10:24 am E 21.0 26.0----29.84- 85.1 82.2----
2024-06-20 10:18 am E 22.0 27.0----29.84- 84.9 82.2----
2024-06-20 10:12 am E 22.0 26.0----29.84- 84.9 82.2----
2024-06-20 10:06 am E 24.1 31.1----29.84- 85.1 82.0----
2024-06-20 10:00 am E 20.0 26.0----29.83+0.08 84.7 82.0----
2024-06-20 09:54 am E 20.0 25.1----29.83- 84.7 82.0----
2024-06-20 09:48 am E 22.0 28.0----29.83- 84.9 82.0----
2024-06-20 09:42 am E 25.1 28.9----29.82- 85.1 81.9----
2024-06-20 09:36 am E 22.9 27.0----29.82- 84.9 81.9----
2024-06-20 09:30 am E 24.1 28.0----29.81- 84.9 81.9----
2024-06-20 09:24 am E 27.0 31.1----29.81- 85.1 81.9----
2024-06-20 09:18 am E 17.1 22.0----29.81- 84.6 81.7----
2024-06-20 09:12 am E 20.0 24.1----29.80- 84.9 81.7----
2024-06-20 09:06 am E 21.0 26.0----29.80- 84.9 81.7----
2024-06-20 09:00 am E 22.0 25.1----29.80+0.08 84.9 81.7----
2024-06-20 08:54 am E 19.0 25.1----29.80- 84.7 81.5----
2024-06-20 08:48 am E 21.0 22.9----29.80- 84.7 81.5----
2024-06-20 08:42 am E 22.0 25.1----29.79- 84.6 81.5----
2024-06-20 08:36 am E 18.1 24.1----29.79- 84.6 81.5----
2024-06-20 08:30 am E 22.9 26.0----29.79- 84.9 81.5----
2024-06-20 08:24 am E 21.0 27.0----29.78- 84.9 81.5----
2024-06-20 08:18 am E 22.9 28.0----29.78- 84.7 81.5----
2024-06-20 08:12 am E 22.9 28.9----29.78- 84.7 81.5----
2024-06-20 08:06 am E 22.0 27.0----29.78- 84.4 81.3----
2024-06-20 08:00 am E 24.1 29.9----29.77+0.06 84.6 81.3----
2024-06-20 07:54 am E 22.9 28.0----29.77- 84.2 81.3----